OBJECT J, 62385

Orbit data source: Space-Track

You're viewing an Uncataloged Satellite

Recently launched and/or uncataloged satellites may have evolving metadata. Metadata may include but not limited to: Owner, Maufacturer, Bus, Motor, and Mission.

OBJECT J, 62385 is a satellite in LEO that was launched on Sat, 21 Dec 2024 UTC via an FALCON 9 launch vehicle from the Air Force Western Test Range (AFWTR). Unknown objects in Earth's orbit typically refer to objects detected orbiting the Earth but have not yet been identified or cataloged. These objects could be anything from previously untracked satellites, spent rocket stages, debris from satellite collisions, or even natural meteoroids temporarily captured by Earth's gravity.

Loading next visibility...
Identifier
62385, 2024-247J
Orbit
LEO
Country
Flag of TBDTBD
Related business
None
Manufacturer
Unknown
Mission
Operational Commercial Communications
Bus & Motor
Unknown
Mass
Unknown
Launch date (UTC)
2024-12-21 (1 year ago)
Launch vehicle
FALCON 9
Launch site
Air Force Western Test Range (AFWTR)
Object type
Unknown
Shape & HBR
Box, 0.0 m
Radar Cross Section
0.004 m², Small (<0.1 m²)

Expand to show TLE details & history
Last TLE update: 12 hours ago

TLE from 12 hours ago
0 OBJECT J
1 62385U 24247J   26023.57254160  .00051819  00000-0  12689-2 0  9998
2 62385  45.0025 343.4364 0008140  91.9824 268.1996 15.40024985 61078
Epoch: 2026-01-23T13:44Z
TLE epoch observation values (Epoch: 2026-01-23T13:44:27.594Z)
Latitude
-0.00002°
Longitude
14.41198°
Altitude
446.213 km
Speed
7.646 km/s
True Right ascension
22h 53m 44s
True Declination
0° 00' 00"
Sunlit
Object was in daylight at epoch
Visualization orbit readout
Latitude
Unknown
Longitude
Unknown
Altitude
Unknown
Speed
Unknown
Apparent Right ascension
Unknown
Apparent Declination
Unknown
Sunlit
N/A
Visualization observer readout
Local Sidereal Time
03:09:13
Azimuth
Unknown
Elevation
Unknown
Doppler factor
Unknown
Orbital elements
Apogee altitude
453.209 km
Perigee altitude
442.097 km
Semi-major axis
6,825.79 km
Eccentricity
0.00081
Inclination
45.0025°
RAAN
343.4364°
Arg. of periapsis
91.9824°
True anomaly
268.10637°
Mean anomaly
268.1996°
Eccentric anomaly
268.15299°
Mean motion
3.8487 °/min
Orbital period
93.54 mins
BSTAR
0.0012689
Loading maneuver chart data...
Computing Atmospheric mass density...
Loading historical data...
Loading historical data...
Loading historical data...
Loading historical data...
Loading historical data...
Loading historical data...
Loading historical data...

Documentation

Showing up to 5 results
|